Flag for Germany Weather past 2 weeks in Gera, Thuringia, Germany

Now
69 °F

Scattered clouds.


Feels Like: 69 °F
Forecast: 65 / 90 °F
Wind: 3 mph from South

Location: Gera-Leumnitz

Current Time: Aug 3, 2015 at 9:42:56 AM

Latest Report: Aug 3, 2015 at 9:00 AM


Visibility: 17 mi

Pressure: 30.08 "Hg

Humidity: 62%

Dew point: 56 °F

Location of GeraLocation

Historic Weather in Gera — Graph

°F

Gera temperature yesterday

Maximum temperature yesterday: 82 °F (at 5:00 PM)
Minimum temperature yesterday: 53 °F (at 6:00 AM)
Average temperature yesterday: 70 °F

Past Weeks' High & Low Weather Summary

 TemperatureHumidityPressure
High89 °F (Jul 22, 4:00 PM)99% (Jul 19, 7:00 PM)30.12 "Hg (Jul 19, 7:00 PM)
Low47 °F (Jul 31, 5:00 AM)28% (Aug 1, 5:00 PM)29.60 "Hg (Jul 27, 1:00 PM)
Average66 °F63%29.88 "Hg
* Reported Jul 19 8:00 AM — Aug 3 8:00 AM, Gera, Weather by CustomWeather, © 2015

Note: Actual official high and low records may vary slightly from our data, if they occured in-between our weather recording intervals... More about our weather records

Advertising

Gera weather history for previous 24 hours

 ConditionsComfort  
Time TempWeatherWind HumidityBarometerVisibility
8:00 AM
Mon, Aug 3
64 °FPartly sunny.2 mph69%30.09 "Hg17 mi
7:00 AM60 °FPassing clouds.2 mph75%30.09 "Hg16 mi
6:00 AM56 °FPassing clouds.5 mph80%30.10 "Hg16 mi
5:00 AM56 °FClear.2 mph80%30.10 "Hg11 mi
4:00 AM58 °FClear.2 mph76%30.10 "Hg16 mi
3:00 AM62 °FClear.1 mph61%30.10 "Hg22 mi
2:00 AM65 °FPassing clouds.1 mph55%30.10 "Hg25 mi
1:00 AM67 °FOvercast.3 mph52%30.10 "Hg28 mi
11:00 PM
Sun, Aug 2
70 °FPassing clouds.2 mph44%30.09 "Hg34 mi
10:00 PM73 °FOvercast.2 mph41%30.08 "Hg25 mi
9:00 PM74 °FPassing clouds.2 mph40%30.07 "Hg34 mi
8:00 PM78 °FPartly sunny.2 mph34%30.05 "Hg34 mi
7:00 PM80 °FPartly sunny.2 mph31%30.05 "Hg37 mi
6:00 PM81 °FScattered clouds.2 mph30%30.05 "Hg37 mi
5:00 PM82 °FScattered clouds.2 mph30%30.05 "Hg37 mi
4:00 PM80 °FPassing clouds.3 mph31%30.06 "Hg37 mi
3:00 PM80 °FPassing clouds.3 mph29%30.07 "Hg34 mi
2:00 PM79 °FPassing clouds.3 mph33%30.09 "Hg31 mi
1:00 PM77 °FPassing clouds.3 mph33%30.09 "Hg28 mi
12:00 PM76 °FPassing clouds.3 mph36%30.09 "Hg25 mi
11:00 AM73 °FScattered clouds.3 mph45%30.09 "Hg22 mi
10:00 AM71 °FPassing clouds.3 mph48%30.09 "Hg22 mi
9:00 AM65 °FScattered clouds.5 mph61%30.09 "Hg22 mi
Weather by CustomWeather, © 2015

See weather overviewHow to use our weather pages